User: anonymous   Login
Location: Unspecified
(0.0000°N, 0.0000°E)
Time: 12:52:11
(UTC+01:00)
Language:

Iridium 33 - Orbit

View from above orbital plane
View from above orbital plane
View from above satellite
View from above satellite

Ground track
Ground track

The orbit data is extracted from the following two-line orbital elements,

1 24946U 97051C   16342.50851873  .00000097  00000-0  27849-4 0  9990
2 24946  86.3872   6.9757 0009297 136.8843 223.3082 14.33526784  6576
Epoch (UTC): 07 December 2016 12:12:16
Eccentricity: 0.0009297
inclination: 86.3872°
perigee height: 773 km
apogee height: 786 km
right ascension of ascending node: 6.9757°
argument of perigee: 136.8843°
revolutions per day: 14.33526784
mean anomaly at epoch: 223.3082°
orbit number at epoch: 657

The dashed part of the orbit path shows where the satellite is in the earth's shadow,  

DLR